Tracking 18980 objects as of 19-Feb-2018
HD Live streaming from Space Station
objects crossing your sky now

IRIDIUM 49


IRIDIUM 49 is no longer on orbit
IRIDIUM 49 is classified as:


NORAD ID: 25108
Int'l Code: 1997-082E
Perigee: N/A
Apogee: N/A
Inclination: N/A
Period: N/A
Semi major axis: N/A
RCS: N/A
Launch date: December 20, 1997
Source: United States (US)
Launch site: AIR FORCE WESTERN TEST RANGE (AFWTR)
Decay date: 2018-02-13
aabbcc
Your satellite tracking list
Your tracking list is empty




NASA's NSSDC Master Catalog

Two Line Element Set (TLE):
1 25108U 97082E   18044.38151829  .15890926 -13830-5  16009-3 0  9996
2 25108  86.3590 152.6916 0048274 278.8562  80.6143 16.45745255 55198
Source of the keplerian elements: AFSPC